Location: Unspecified
(0.0000°N, 0.0000°E)
Time: 02:45:35
(UTC+00:00)

Vanguard 2 Rocket - Pass Details

Date: 24 October 2025
Orbit: 554 x 3288 km, 32.9° (Epoch: 06 November)

Event Time Altitude Azimuth Distance (km) Brightness Sun altitude
Rises 04:03:00 0° 317° (NW) 6,848 - -24.7°
Exits shadow 04:07:22 - 326° (NW) 6,271 10.7 -23.7°
Reaches altitude 10° 04:08:58 10° 330° (NNW) 6,074 10.7 -23.3°
Maximum altitude 04:24:07 26° 20° (NNE) 4,935 10.6 -19.6°
Drops below altitude 10° 04:37:58 10° 70° (ENE) 5,615 11.8 -16.2°
Sets 04:43:03 0° 82° (E) 6,272 12.6 -15.0°
